Corsicana, TX

2:16 AM CST on January 20, 2017 (GMT -0600)
Campbell-Corsicana Municipal

Weather History for KCRS - January, 2014

Change the Weather History Date:

Friday, January 17, 2014

  Actual Average (KACT) Record (KACT)
Temperature  
Mean Temperature 46 °F -  
Max Temperature 54 °F 58 °F 79 °F (1952)
Min Temperature 36 °F 36 °F 11 °F (1982)
Degree Days  
Heating Degree Days 20    
Moisture  
Dew Point 17 °F    
Average Humidity 33    
Maximum Humidity 57    
Minimum Humidity 16    
Precipitation  
Precipitation 0.00 in - - ()
Sea Level Pressure  
Sea Level Pressure 30.29 in    
Wind  
Wind Speed 9 mph (NNW)    
Max Wind Speed 16 mph    
Max Gust Speed 23 mph    
Visibility 10 miles    
Events      
Averages and records for this station are not official NWS values.
T = Trace of Precipitation, MM = Missing Value Source: NWS Daily Summary

Daily Weather History Graph

Daily Weather History Graph

Search for Another Location

Airport or City:

Trip Planner

Search our weather history database for the weather conditions in past years. The results will help you decide how hot, cold, wet, or windy it might be!

Date:

Astronomy

Jan. 17, 2014 Rise Set
Actual Time 7:26 AM CST 5:45 PM CST
Civil Twilight 6:59 AM CST 6:12 PM CST
Nautical Twilight 6:29 AM CST 6:42 PM CST
Astronomical Twilight 6:00 AM CST 7:11 PM CST
Moon 7:24 PM CST (1/17) 8:02 AM CST (1/17)
Length of Visible Light 11h 12m
Length of Day
10h 19m
Full, 98% of the Moon is Illuminated
Jan 17
Full
Jan 23
Last Quarter
Jan 30
New
Feb 6
First Quarter
Feb 14
Full

Hourly Weather History & Observations

Time (CST) Temp. Windchill Dew Point Humidity Pressure Visibility Wind Dir Wind Speed Gust Speed Precip Events Conditions
12:53 AM 48.9 °F - 16.0 °F 27% 30.21 in 10.0 mi NW 9.2 mph - N/A   Mostly Cloudy
1:53 AM 45.0 °F 41.2 °F 18.0 °F 34% 30.23 in 10.0 mi West 6.9 mph - N/A   Mostly Cloudy
2:53 AM 48.9 °F - 15.1 °F 26% 30.24 in 10.0 mi NNW 8.1 mph - N/A   Partly Cloudy
3:53 AM 43.0 °F 38.2 °F 19.9 °F 40% 30.24 in 10.0 mi West 8.1 mph - N/A   Scattered Clouds
4:53 AM 42.1 °F 37.1 °F 24.1 °F 49% 30.26 in 10.0 mi NW 8.1 mph - N/A   Clear
5:53 AM 46.9 °F - 19.0 °F 33% 30.27 in 9.0 mi NNW 8.1 mph - N/A   Clear
6:53 AM 46.9 °F - 19.0 °F 33% 30.30 in 10.0 mi North 9.2 mph - N/A   Clear
7:53 AM 44.1 °F 38.6 °F 19.0 °F 37% 30.33 in 10.0 mi North 10.4 mph 18.4 mph N/A   Clear
8:53 AM 46.0 °F 40.6 °F 17.1 °F 31% 30.35 in 10.0 mi North 11.5 mph - N/A   Clear
9:53 AM 48.0 °F - 15.1 °F 27% 30.38 in 9.0 mi North 16.1 mph 23.0 mph N/A   Clear
10:53 AM 50.0 °F - 16.0 °F 26% 30.39 in 10.0 mi North 15.0 mph - N/A   Clear
11:53 AM 52.0 °F - 16.0 °F 24% 30.36 in 10.0 mi North 12.7 mph - N/A   Clear
12:53 PM 53.1 °F - 12.9 °F 20% 30.33 in 10.0 mi North 16.1 mph 20.7 mph N/A   Clear
1:53 PM 53.1 °F - 10.9 °F 19% 30.30 in 10.0 mi NNW 10.4 mph - N/A   Clear
2:53 PM 54.0 °F - 8.1 °F 16% 30.30 in 10.0 mi NNW 10.4 mph - N/A   Clear
3:53 PM 54.0 °F - 10.0 °F 17% 30.29 in 10.0 mi NW 8.1 mph - N/A   Clear
4:53 PM 53.1 °F - 12.0 °F 20% 30.29 in 10.0 mi NNW 3.5 mph - N/A   Clear
5:53 PM 48.0 °F - 18.0 °F 30% 30.29 in 10.0 mi Calm Calm - N/A   Clear
6:53 PM 45.0 °F 43.5 °F 18.0 °F 34% 30.30 in 10.0 mi East 3.5 mph - N/A   Clear
7:53 PM 42.1 °F 40.2 °F 19.0 °F 40% 30.29 in 10.0 mi SE 3.5 mph - N/A   Clear
8:53 PM 41.0 °F 38.0 °F 19.9 °F 43% 30.29 in 10.0 mi South 4.6 mph - N/A   Clear
9:53 PM 39.0 °F 35.7 °F 21.0 °F 49% 30.29 in 10.0 mi South 4.6 mph - N/A   Clear
10:53 PM 37.0 °F 30.4 °F 21.0 °F 52% 30.27 in 10.0 mi South 9.2 mph - N/A   Clear
11:53 PM 36.0 °F 30.3 °F 21.9 °F 57% 30.25 in 10.0 mi South 6.9 mph - N/A   Clear